Location: Asheville, NC
(35.6000°N, 82.5500°W)
Time: 04:18:22
(UTC-05:00)

STRAND 1 - Pass Details

Date: 11 January 2018
Orbit: 768 x 782 km, 98.5° (Epoch: 18 January)

Event Time Altitude Azimuth Distance (km) Brightness Sun altitude
Exits shadow 19:34:50 22° 150° (SSE) 1,637 ? -23.5°
Drops below altitude 10° 19:36:53 10° 165° (SSE) 2,317 ? -24.0°
Sets 19:39:21 0° 174° (S) 3,242 ? -24.4°
